User: anonymous   Login
Location: Buttermere
(51.3333°N, 1.5167°W)
Time: 07:39:05
(UTC+00:00)
Language:

Cosmos 1544 - Orbit

View from above orbital plane
View from above orbital plane
View from above satellite
View from above satellite

Ground track
Ground track

The orbit data is extracted from the following two-line orbital elements,

1 14819U 84027A   20336.83966350  .00002776  00000-0  99234-4 0  9991
2 14819  82.4827 195.0640 0011750 266.0226  93.9670 15.28324133  8407
Epoch (UTC): 01 December 2020 20:09:06
Eccentricity: 0.0011750
inclination: 82.4827°
perigee height: 473 km
apogee height: 489 km
right ascension of ascending node: 195.0640°
argument of perigee: 266.0226°
revolutions per day: 15.28324133
mean anomaly at epoch: 93.9670°
orbit number at epoch: 840

The dashed part of the orbit path shows where the satellite is in the earth's shadow,  

DLR